[[{"header":{"parameterUnit":"m.s-1","parameterCategory":2,"la1":30.2991,"la2":30.254,"lo1":-89.0895,"lo2":-89.0444,"dy":0.0017,"dx":0.0017,"nx":28,"ny":28,"refTime":"2023-04-23T21:00:00:Z","depth":"0","parameterNumber":2,"parameterNumberName":"U-component_of_CURRENTS"},"data":[0,0,0,0,0,0,0,0,0,0,0,0,0,0,0,0,0,0,0,0,0,0,0,0,0,0,0,0,0,0,0,0,0,0,0,0,0,0,0,0,0,0,0,0,0,0,0,0,0,0,0,0,0,0,0,0,0,0,-0.3311,-0.3313,0,-0.3515,-0.3517,-0.3519,-0.3613,-0.3613,-0.3613,-0.3613,-0.3663,-0.3664,-0.3665,0,0,0,0,0,0,0,0,0,0,0,0,0,-0.3204,-0.3204,-0.3311,-0.3314,-0.3317,-0.3515,-0.3517,-0.352,-0.3613,-0.3613,-0.3613,-0.3613,-0.3662,-0.3664,-0.3665,0,0,0,0,0,0,0,0,0,0,0,0,0,-0.3309,-0.3204,-0.331,-0.339,-0.3399,-0.3514,-0.3517,-0.352,-0.3613,-0.3613,-0.3613,-0.3613,-0.3662,-0.3663,-0.3665,-0.3672,0,0,-0.3671,-0.3671,0,0,0,0,0,0,0,0,-0.3303,-0.3312,-0.3375,-0.3384,-0.3395,-0.3542,-0.3498,-0.3565,-0.3613,-0.3528,-0.3613,-0.3613,-0.361,-0.3616,-0.3651,-0.3674,-0.3676,-0.3671,-0.3672,-0.3673,-0.3673,0,0,0,0,0,0,0,-0.3295,-0.3306,-0.3388,-0.3378,-0.3391,-0.3485,-0.3498,-0.3513,-0.3559,-0.3535,-0.3543,-0.3572,-0.3614,-0.3649,-0.3652,-0.3677,-0.3671,-0.3672,-0.3673,-0.3674,-0.3733,-0.3734,0,0,0,0,0,0,-0.3266,-0.3297,-0.3382,-0.3394,-0.3353,-0.3486,-0.35,-0.3492,-0.3563,-0.3576,-0.3571,-0.3575,-0.3646,-0.365,-0.3654,-0.3613,-0.3673,-0.3674,-0.3675,-0.3733,-0.3734,-0.3734,0,0,0,0,0,0,-0.3263,-0.327,-0.3373,-0.3356,-0.3376,-0.3486,-0.3477,-0.3496,-0.3522,-0.3593,-0.3603,-0.3578,-0.3646,-0.3652,-0.369,-0.3617,-0.3675,-0.3677,-0.3732,-0.3733,-0.3734,-0.3564,0,0,0,0,0,0,-0.3258,-0.3267,-0.3236,-0.3352,-0.3376,-0.3407,-0.3478,-0.35,-0.3542,-0.3549,-0.3601,-0.3608,-0.3647,-0.3688,-0.3692,-0.3621,-0.3678,-0.3732,-0.3733,-0.3734,-0.3569,-0.3559,-0.355,0,0,0,0,0,-0.3253,-0.3214,-0.3232,-0.3243,-0.3333,-0.3406,-0.3425,-0.3505,-0.3541,-0.3532,-0.3608,-0.3605,-0.3696,-0.369,-0.3695,-0.3622,-0.3731,-0.3732,-0.3733,-0.3573,-0.3561,-0.355,0,0,0,0,0,0,-0.3125,-0.3224,-0.3246,-0.3228,-0.3295,-0.3422,-0.3429,-0.349,-0.3547,-0.3552,-0.3621,-0.3632,-0.3643,-0.3676,-0.3668,-0.3653,-0.3708,-0.371,-0.3584,-0.3573,-0.3564,-0.3515,-0.3679,0,0,0,0,0,-0.3087,-0.3092,-0.3192,-0.3169,-0.3201,-0.331,-0.3347,-0.3403,-0.3482,-0.3508,-0.3558,-0.3612,-0.3654,-0.3649,-0.3701,-0.3678,-0.3693,-0.364,-0.363,-0.3621,-0.3592,-0.3575,-0.3558,-0.3738,-0.3738,-0.3738,0,0,-0.3033,-0.3084,-0.3085,-0.3145,-0.3206,-0.3247,-0.333,-0.3373,-0.3394,-0.3499,-0.3524,-0.3588,-0.3656,-0.3655,-0.3655,-0.366,-0.3584,-0.3623,-0.3614,-0.3589,-0.3574,-0.3555,-0.3539,-0.3739,-0.3739,-0.3738,0,0,-0.2963,-0.2967,-0.2973,-0.3024,-0.311,-0.3176,-0.3181,-0.3294,-0.3319,-0.3366,-0.3453,-0.347,-0.354,-0.3555,-0.3578,-0.3543,-0.3558,-0.3565,-0.3433,-0.3416,-0.3399,-0.3384,-0.3382,-0.3369,-0.3528,-0.3528,-0.3528,0,-0.2894,-0.2911,-0.2978,-0.3008,-0.3044,-0.3137,-0.3156,-0.3194,-0.3302,-0.3315,-0.3348,-0.3449,-0.348,-0.3472,-0.3459,-0.3505,-0.3523,-0.3456,-0.3395,-0.3381,-0.3368,-0.337,-0.3357,-0.352,-0.3521,-0.3522,-0.3522,0,-0.2861,-0.287,-0.2872,-0.2938,-0.2971,-0.2995,-0.3072,-0.3092,-0.3138,-0.3189,-0.3204,-0.3264,-0.3318,-0.3314,-0.3367,-0.3297,-0.335,-0.3401,-0.34,-0.3338,-0.3347,-0.3336,-0.3508,-0.3511,-0.3514,-0.3516,0,0,-0.2732,-0.2833,-0.2833,-0.2861,-0.2939,-0.2971,-0.2975,-0.3017,-0.3032,-0.3063,-0.3073,-0.3084,-0.3119,-0.3148,-0.3196,-0.3142,-0.3057,-0.3211,-0.3214,-0.3168,-0.3032,-0.296,-0.2942,-0.3098,-0.3095,-0.3093,-0.3072,0,-0.2689,-0.2729,-0.2787,-0.2805,-0.2833,-0.2902,-0.2908,-0.2945,-0.2982,-0.301,-0.3006,-0.3047,-0.3055,-0.3081,-0.3019,-0.3099,-0.3022,-0.3059,-0.3136,-0.3138,-0.3045,-0.2924,-0.2787,-0.2746,-0.3062,-0.3061,-0.3059,0,-0.2646,-0.2685,-0.2703,-0.2769,-0.2785,-0.2798,-0.2834,-0.2856,-0.2893,-0.2924,-0.2919,-0.2974,-0.2926,-0.2949,-0.2917,-0.2952,-0.295,-0.2968,-0.2969,-0.2944,-0.3042,-0.2866,-0.2715,-0.2699,-0.3043,-0.3045,-0.3046,0,-0.2555,-0.262,-0.263,-0.2654,-0.2739,-0.274,-0.2771,-0.2816,-0.2833,-0.287,-0.2899,-0.2879,-0.29,-0.2869,-0.2896,-0.2915,-0.2871,-0.2921,-0.2833,-0.2832,-0.2746,-0.274,-0.2545,-0.2833,-0.2833,-0.2833,-0.2833,0,-0.2496,-0.2501,-0.259,-0.2601,-0.2602,-0.2677,-0.2675,-0.272,-0.277,-0.2782,-0.2841,-0.2848,-0.2878,-0.2881,-0.2874,-0.2813,-0.285,-0.2762,-0.2791,-0.2689,-0.2677,-0.2691,-0.2741,-0.2832,-0.2832,-0.2832,-0.2833,0,-0.239,-0.2457,-0.2472,-0.2547,-0.2564,-0.2558,-0.2618,-0.2624,-0.2698,-0.2721,-0.2733,-0.282,-0.2821,-0.2839,-0.2832,-0.2792,-0.2697,-0.2719,-0.2599,-0.2609,-0.2477,-0.2525,-0.2395,-0.2327,-0.2591,-0.2588,-0.2586,0,-0.2338,-0.234,-0.2406,-0.2407,-0.2433,-0.245,-0.2461,-0.2556,-0.2576,-0.2689,-0.269,-0.2736,-0.272,-0.2695,-0.2636,-0.2574,-0.2603,-0.2433,-0.2397,-0.2384,-0.2462,-0.251,-0.2466,-0.224,-0.2236,-0.2232,-0.2229,0,-0.2226,-0.2249,-0.2266,-0.2271,-0.2282,-0.2302,-0.2335,-0.2349,-0.2464,-0.25,-0.2544,-0.2547,-0.2538,-0.2425,-0.2377,-0.2326,-0.2357,-0.2349,-0.2355,-0.2145,-0.2165,-0.2144,-0.2379,-0.2195,-0.2198,-0.22,-0.2202,-0.2204,-0.2116,-0.2096,-0.2118,-0.2107,-0.2128,-0.2132,-0.209,-0.2158,-0.2177,-0.2212,-0.2325,-0.2303,-0.2281,-0.2167,-0.2124,-0.2001,-0.2081,-0.1941,-0.1998,-0.2047,-0.1948,-0.2097,-0.1938,-0.194,-0.1941,-0.1943,-0.1944,0,-0.1963,-0.196,-0.195,-0.1937,-0.1896,-0.1964,-0.1982,-0.1928,-0.1897,-0.1994,-0.1998,-0.2006,-0.1883,-0.1889,-0.1777,-0.1691,-0.1658,-0.167,-0.1697,-0.1666,-0.179,-0.1739,-0.1504,-0.1504,-0.1504,-0.1504,-0.1504,-0.1504,-0.1881,-0.182,-0.1823,-0.1709,-0.1693,-0.1595,-0.1571,-0.1538,-0.157,-0.1566,-0.1618,-0.1703,-0.1726,-0.181,-0.1676,-0.1584,-0.157,-0.1499,-0.1565,-0.1667,-0.1697,-0.1726,-0.1684,-0.1441,-0.1441,-0.1346,-0.1346,-0.1345]},{"header":{"parameterUnit":"m.s-1","parameterCategory":2,"la1":30.2991,"la2":30.254,"lo1":-89.0895,"lo2":-89.0444,"dy":0.0017,"dx":0.0017,"nx":28,"ny":28,"refTime":"2023-04-23T21:00:00:Z","depth":"0","parameterNumber":3,"parameterNumberName":"V-component_of_CURRENTS"},"data":[0,0,0,0,0,0,0,0,0,0,0,0,0,0,0,0,0,0,0,0,0,0,0,0,0,0,0,0,0,0,0,0,0,0,0,0,0,0,0,0,0,0,0,0,0,0,0,0,0,0,0,0,0,0,0,0,0,0,-0.0358,-0.0357,0,-0.0236,-0.0234,-0.0233,-0.0146,-0.0146,-0.0146,-0.0145,0.0037,0.0041,0.0045,0,0,0,0,0,0,0,0,0,0,0,0,0,-0.0456,-0.0455,-0.0358,-0.0357,-0.0355,-0.0236,-0.0234,-0.0232,-0.0146,-0.0146,-0.0145,-0.0145,0.0035,0.004,0.0046,0,0,0,0,0,0,0,0,0,0,0,0,0,-0.0379,-0.0454,-0.0358,-0.03,-0.0294,-0.0236,-0.0234,-0.0232,-0.0147,-0.0146,-0.0145,-0.0145,0.0033,0.004,0.0046,0.0074,0,0,0.0067,0.007,0,0,0,0,0,0,0,0,-0.0384,-0.0375,-0.031,-0.0304,-0.0297,-0.0208,-0.0202,-0.0127,-0.0147,-0.02,-0.0145,-0.0144,-0.0042,-0.0029,-0.0005,0.0083,0.0091,0.0067,0.0071,0.0074,0.0076,0,0,0,0,0,0,0,-0.0389,-0.038,-0.0307,-0.0309,-0.0301,-0.026,-0.0248,-0.0187,-0.0123,-0.0195,-0.0189,-0.018,-0.0037,-0.0011,0.0,0.0093,0.0067,0.0073,0.0077,0.008,0.025,0.025,0,0,0,0,0,0,-0.0413,-0.0385,-0.0311,-0.0303,-0.0343,-0.0259,-0.0246,-0.0235,-0.0125,-0.0108,-0.0181,-0.0177,-0.0023,-0.0007,0.0007,0.0045,0.0074,0.008,0.0084,0.0249,0.025,0.025,0,0,0,0,0,0,-0.0416,-0.0408,-0.0316,-0.0344,-0.0329,-0.0259,-0.0246,-0.0233,-0.0207,-0.0115,-0.0097,-0.0169,-0.0022,-0.0002,0.0064,0.0053,0.0083,0.0089,0.0248,0.0249,0.025,0.0122,0,0,0,0,0,0,-0.0419,-0.0409,-0.0409,-0.0345,-0.0329,-0.0296,-0.0247,-0.0231,-0.0204,-0.0197,-0.0099,-0.0081,-0.002,0.0054,0.007,0.0063,0.0095,0.0248,0.0249,0.025,0.0126,0.0119,0.0113,0,0,0,0,0,-0.0423,-0.0431,-0.0409,-0.04,-0.033,-0.0297,-0.0285,-0.023,-0.0204,-0.0202,-0.0126,-0.0084,0.0072,0.0059,0.0079,0.0073,0.0247,0.0249,0.025,0.0129,0.012,0.0113,0,0,0,0,0,0,-0.047,-0.0421,-0.0396,-0.0387,-0.0352,-0.0284,-0.0277,-0.0239,-0.0178,-0.0169,-0.0078,-0.0055,-0.0001,0.0059,0.0042,0.0129,0.0167,0.0172,0.0069,0.0061,0.0055,0.0039,0.01,0,0,0,0,0,-0.0483,-0.0475,-0.0423,-0.0416,-0.0405,-0.0343,-0.0321,-0.0287,-0.0227,-0.02,-0.0132,-0.0051,0.002,0.0056,0.0125,0.0169,0.0216,0.0182,0.0175,0.0169,0.0173,0.0211,0.0207,0.0254,0.0254,0.0254,0,0,-0.0497,-0.0471,-0.0464,-0.0426,-0.0393,-0.0381,-0.0328,-0.0308,-0.029,-0.0189,-0.0145,-0.0075,0.0028,0.0078,0.0107,0.0125,0.0183,0.017,0.0164,0.0172,0.0212,0.0207,0.0202,0.0255,0.0255,0.0255,0,0,-0.0533,-0.0504,-0.0513,-0.0491,-0.0456,-0.0417,-0.0418,-0.036,-0.0328,-0.0278,-0.0199,-0.0136,-0.0033,0.0034,0.0085,0.0086,0.0144,0.0108,0.006,0.0096,0.0091,0.0088,0.0139,0.0141,0.0104,0.0104,0.0103,0,-0.0553,-0.0552,-0.0512,-0.0517,-0.0502,-0.0441,-0.0446,-0.0406,-0.0332,-0.0305,-0.0281,-0.013,-0.0052,0.0021,0.0027,0.0067,0.0102,0.0072,0.0082,0.008,0.0079,0.0132,0.0136,0.0098,0.0098,0.0099,0.01,0,-0.0594,-0.0591,-0.0599,-0.058,-0.0561,-0.0559,-0.0505,-0.0483,-0.0438,-0.0386,-0.0318,-0.0217,-0.0126,-0.0095,-0.0028,0.0008,0.004,0.0061,0.0089,0.0065,0.0125,0.0131,0.0089,0.0091,0.0093,0.0094,0,0,-0.0637,-0.063,-0.063,-0.0637,-0.0595,-0.0588,-0.0565,-0.0523,-0.0509,-0.0438,-0.0408,-0.0288,-0.0237,-0.0175,-0.0096,-0.0057,-0.0033,-0.0008,-0.0003,0.0018,0.0052,0.0134,0.0149,-0.0024,-0.0024,-0.0023,0.0094,0,-0.0678,-0.0714,-0.0686,-0.0705,-0.0718,-0.0661,-0.0645,-0.0598,-0.0546,-0.0505,-0.0405,-0.0343,-0.0267,-0.0232,-0.0181,-0.0061,-0.0021,-0.0066,0.0094,0.01,0.0154,0.0158,0.0204,0.0317,0.0101,0.0102,0.0103,0,-0.072,-0.0741,-0.0777,-0.0775,-0.0774,-0.0769,-0.074,-0.0718,-0.064,-0.06,-0.0528,-0.0446,-0.0347,-0.03,-0.0131,-0.0167,-0.0066,0.0015,0.0021,0.0149,0.0194,0.0311,0.0338,0.0499,0.0114,0.0113,0.0112,0,-0.0779,-0.0797,-0.0832,-0.0831,-0.082,-0.0819,-0.0804,-0.0746,-0.0734,-0.0662,-0.0643,-0.0519,-0.0452,-0.0327,-0.0128,-0.014,0.005,0.0054,0.0221,0.0229,0.0331,0.0346,0.0515,0.0152,0.0152,0.0151,0.0151,0,-0.0831,-0.0856,-0.0866,-0.0887,-0.0925,-0.0887,-0.0903,-0.0871,-0.0825,-0.0808,-0.0699,-0.0648,-0.046,-0.0316,-0.0158,0.0073,0.0033,0.0224,0.0266,0.0291,0.0301,0.0498,0.0551,0.0156,0.0155,0.0154,0.0153,0,-0.0885,-0.0891,-0.0936,-0.0948,-0.0955,-0.0982,-0.098,-0.099,-0.0936,-0.0913,-0.0894,-0.0739,-0.0531,-0.0323,-0.0088,0.0049,0.0362,0.0333,0.0364,0.0407,0.07,0.0743,0.0968,0.1073,0.0522,0.0525,0.0527,0,-0.0916,-0.0947,-0.0994,-0.103,-0.1037,-0.1068,-0.1088,-0.1052,-0.1054,-0.0952,-0.0943,-0.0745,-0.0564,-0.018,0.0101,0.0397,0.0507,0.0587,0.0577,0.074,0.0818,0.0846,0.0918,0.0662,0.0665,0.0668,0.067,0,-0.0973,-0.0987,-0.1029,-0.1107,-0.1147,-0.1193,-0.121,-0.122,-0.116,-0.1099,-0.0958,-0.0801,-0.0411,-0.0027,0.0351,0.0519,0.0716,0.065,0.0807,0.0941,0.0995,0.1107,0.0568,0.0693,0.0691,0.0689,0.0688,0.0687,-0.1006,-0.1054,-0.1108,-0.118,-0.1237,-0.1287,-0.1298,-0.1275,-0.1234,-0.1093,-0.0953,-0.0669,-0.0155,0.0411,0.0613,0.1013,0.0951,0.1111,0.115,0.1165,0.1272,0.0798,0.0975,0.0974,0.0973,0.0973,0.0972,0,-0.1044,-0.1097,-0.1174,-0.1255,-0.1322,-0.1333,-0.1357,-0.132,-0.1225,-0.1042,-0.0839,-0.0268,0.0248,0.0699,0.1265,0.1486,0.1526,0.1579,0.1621,0.1671,0.1251,0.1264,0.1527,0.1527,0.1526,0.1526,0.1526,0.1526,-0.1064,-0.1144,-0.1189,-0.1304,-0.1354,-0.1392,-0.1387,-0.129,-0.1145,-0.0783,-0.0453,-0.0189,0.0445,0.1343,0.1857,0.1901,0.2085,0.2071,0.2167,0.1863,0.1821,0.1781,0.1809,0.2181,0.2181,0.2581,0.2585,0.2588]}],[{"header":{"parameterUnit":"m.s-1","parameterCategory":2,"la1":30.2991,"la2":30.254,"lo1":-89.0895,"lo2":-89.0444,"dy":0.0017,"dx":0.0017,"nx":28,"ny":28,"refTime":"2023-04-23T21:00:00:Z","depth":"2","parameterNumber":2,"parameterNumberName":"U-component_of_CURRENTS"},"data":[0,0,0,0,0,0,0,0,0,0,0,0,0,0,0,0,0,0,0,0,0,0,0,0,0,0,0,0,0,0,0,0,0,0,0,0,0,0,0,0,0,0,0,0,0,0,0,0,0,0,0,0,0,0,0,0,0,0,-0.2904,-0.2905,0,-0.2986,-0.2987,-0.2987,-0.3018,-0.3018,-0.3018,-0.3018,-0.314,-0.3143,-0.3146,0,0,0,0,0,0,0,0,0,0,0,0,0,-0.2789,-0.279,-0.2904,-0.2905,-0.2907,-0.2986,-0.2987,-0.2988,-0.3018,-0.3018,-0.3018,-0.3018,-0.3139,-0.3143,-0.3147,0,0,0,0,0,0,0,0,0,0,0,0,0,-0.2847,-0.2791,-0.2904,-0.2935,-0.2939,-0.2986,-0.2987,-0.2988,-0.3018,-0.3018,-0.3018,-0.3018,-0.3138,-0.3143,-0.3147,-0.3172,0,0,-0.3161,-0.3163,0,0,0,0,0,0,0,0,-0.2844,-0.2851,-0.2929,-0.2933,-0.2937,-0.2996,-0.2991,-0.3053,-0.3018,-0.2983,-0.3018,-0.3018,-0.3098,-0.3106,-0.3114,-0.3178,-0.3183,-0.3162,-0.3165,-0.3167,-0.3168,0,0,0,0,0,0,0,-0.284,-0.2848,-0.2932,-0.293,-0.2936,-0.295,-0.2958,-0.3003,-0.3036,-0.2986,-0.299,-0.3006,-0.31,-0.311,-0.3118,-0.3185,-0.3162,-0.3166,-0.3169,-0.3171,-0.3322,-0.3323,0,0,0,0,0,0,-0.2838,-0.2844,-0.2929,-0.2935,-0.2895,-0.2952,-0.2961,-0.2973,-0.3035,-0.3045,-0.3005,-0.3007,-0.3102,-0.3112,-0.3122,-0.3132,-0.3167,-0.3171,-0.3174,-0.332,-0.3322,-0.3323,0,0,0,0,0,0,-0.2835,-0.2844,-0.2926,-0.2895,-0.2907,-0.2955,-0.2968,-0.2975,-0.2991,-0.305,-0.306,-0.3016,-0.3102,-0.3116,-0.3183,-0.3138,-0.3173,-0.3177,-0.3319,-0.3321,-0.3322,-0.3166,0,0,0,0,0,0,-0.2831,-0.2843,-0.284,-0.2895,-0.2909,-0.2951,-0.2968,-0.2976,-0.3003,-0.3005,-0.3062,-0.3073,-0.3103,-0.3176,-0.3188,-0.3145,-0.3181,-0.3317,-0.332,-0.3322,-0.317,-0.3163,-0.3156,0,0,0,0,0,-0.2827,-0.282,-0.2839,-0.2849,-0.2907,-0.2951,-0.2959,-0.2991,-0.3003,-0.3006,-0.3062,-0.3072,-0.3198,-0.3181,-0.3195,-0.3152,-0.3316,-0.3319,-0.3322,-0.3173,-0.3164,-0.3157,0,0,0,0,0,0,-0.2752,-0.2825,-0.2846,-0.2858,-0.2903,-0.2958,-0.2959,-0.2992,-0.3036,-0.304,-0.3095,-0.311,-0.3149,-0.3197,-0.3177,-0.3212,-0.3256,-0.3261,-0.3138,-0.3131,-0.3124,-0.3085,-0.3185,0,0,0,0,0,-0.2741,-0.2757,-0.2829,-0.2831,-0.2855,-0.2909,-0.2928,-0.2959,-0.3011,-0.3029,-0.3075,-0.313,-0.317,-0.3189,-0.3242,-0.3263,-0.3275,-0.325,-0.3243,-0.3236,-0.3221,-0.32,-0.3186,-0.3332,-0.3332,-0.3332,0,0,-0.2709,-0.275,-0.2757,-0.2817,-0.2849,-0.2876,-0.2919,-0.2949,-0.296,-0.3038,-0.3062,-0.3114,-0.318,-0.3198,-0.3218,-0.3228,-0.3206,-0.324,-0.3232,-0.3221,-0.3201,-0.3185,-0.3172,-0.3334,-0.3333,-0.3333,0,0,-0.2663,-0.2695,-0.2703,-0.2743,-0.2804,-0.2842,-0.2854,-0.2921,-0.2936,-0.2985,-0.3031,-0.3054,-0.3142,-0.3145,-0.3166,-0.3161,-0.3179,-0.3195,-0.3106,-0.3084,-0.3069,-0.3057,-0.3049,-0.3037,-0.3176,-0.3176,-0.3176,0,-0.2621,-0.2648,-0.2707,-0.273,-0.2755,-0.2826,-0.2841,-0.2866,-0.2944,-0.2953,-0.2982,-0.3064,-0.3099,-0.3093,-0.3083,-0.313,-0.3145,-0.3113,-0.3065,-0.3053,-0.3043,-0.3039,-0.3027,-0.3169,-0.317,-0.317,-0.3171,0,-0.2595,-0.2617,-0.2621,-0.2676,-0.2707,-0.2729,-0.2789,-0.2814,-0.285,-0.2879,-0.2901,-0.2947,-0.2991,-0.2992,-0.303,-0.2978,-0.3021,-0.3058,-0.3061,-0.3017,-0.3018,-0.3008,-0.3159,-0.3161,-0.3163,-0.3165,0,0,-0.2502,-0.2589,-0.2589,-0.2615,-0.2685,-0.2712,-0.2724,-0.2761,-0.2774,-0.2806,-0.2809,-0.2821,-0.2846,-0.2873,-0.2906,-0.2865,-0.2784,-0.292,-0.2922,-0.2868,-0.2751,-0.2683,-0.2667,-0.2812,-0.281,-0.2808,-0.2776,0,-0.2464,-0.2497,-0.2549,-0.2569,-0.2595,-0.266,-0.2671,-0.2708,-0.2745,-0.2769,-0.2766,-0.2796,-0.2801,-0.2822,-0.2772,-0.2819,-0.2756,-0.2791,-0.2842,-0.2843,-0.2749,-0.2652,-0.2459,-0.2406,-0.2767,-0.2766,-0.2765,0,-0.2423,-0.2458,-0.2476,-0.2542,-0.2557,-0.2574,-0.2618,-0.2642,-0.2678,-0.2708,-0.2707,-0.2749,-0.2709,-0.2726,-0.2685,-0.2718,-0.2705,-0.271,-0.271,-0.269,-0.2756,-0.2516,-0.2376,-0.275,-0.2751,-0.2752,-0.2753,0,-0.2342,-0.2403,-0.2415,-0.2438,-0.2521,-0.2528,-0.2563,-0.261,-0.2632,-0.2669,-0.2698,-0.268,-0.2695,-0.2659,-0.2666,-0.2683,-0.2629,-0.2664,-0.2573,-0.2571,-0.2437,-0.2425,-0.2583,-0.2583,-0.2583,-0.2583,-0.2583,0,-0.2287,-0.2296,-0.2381,-0.2392,-0.2404,-0.2477,-0.2488,-0.2533,-0.2586,-0.2602,-0.2655,-0.266,-0.2678,-0.2669,-0.265,-0.2578,-0.2611,-0.252,-0.2534,-0.2382,-0.2366,-0.2705,-0.272,-0.2582,-0.2582,-0.2582,-0.2582,0,-0.219,-0.2252,-0.227,-0.2347,-0.2369,-0.2372,-0.2444,-0.2457,-0.2531,-0.2557,-0.257,-0.2642,-0.2626,-0.2631,-0.2603,-0.2559,-0.2508,-0.247,-0.2296,-0.2286,-0.2469,-0.2478,-0.235,-0.2347,-0.2344,-0.2342,-0.234,0,-0.2141,-0.2144,-0.2215,-0.2223,-0.2252,-0.2281,-0.2303,-0.2401,-0.2426,-0.2528,-0.253,-0.2559,-0.2529,-0.2479,-0.2411,-0.2334,-0.2426,-0.2131,-0.2092,-0.2406,-0.2434,-0.2447,-0.2458,-0.1866,-0.1861,-0.1856,-0.1852,0,-0.2037,-0.2063,-0.2084,-0.2103,-0.2125,-0.2155,-0.22,-0.2219,-0.2332,-0.2359,-0.2386,-0.2373,-0.2344,-0.2183,-0.212,-0.2054,-0.2129,-0.2033,-0.2379,-0.1961,-0.1948,-0.1978,-0.2005,-0.1811,-0.1815,-0.1818,-0.1821,-0.1822,-0.194,-0.1925,-0.1954,-0.1959,-0.1992,-0.2006,-0.1973,-0.2039,-0.2055,-0.2068,-0.2164,-0.2088,-0.2088,-0.1873,-0.1778,-0.1712,-0.1853,-0.1774,-0.1789,-0.1808,-0.1763,-0.1747,-0.1565,-0.1567,-0.1569,-0.1571,-0.1573,0,-0.1803,-0.1806,-0.1808,-0.1811,-0.1786,-0.1855,-0.1881,-0.1827,-0.1784,-0.1832,-0.1808,-0.1633,-0.1525,-0.1536,-0.1358,-0.1325,-0.1315,-0.1279,-0.1266,-0.1307,-0.1343,-0.1275,-0.0947,-0.0945,-0.0943,-0.0942,0,0,-0.1729,-0.1682,-0.169,-0.1605,-0.1602,-0.152,-0.1499,-0.1452,-0.1447,-0.1367,-0.1332,-0.1438,-0.1482,-0.1224,-0.1156,-0.1022,-0.1155,-0.0967,-0.1465,-0.1489,-0.1524,-0.1618,-0.1558,0,0,0,0,0]},{"header":{"parameterUnit":"m.s-1","parameterCategory":2,"la1":30.2991,"la2":30.254,"lo1":-89.0895,"lo2":-89.0444,"dy":0.0017,"dx":0.0017,"nx":28,"ny":28,"refTime":"2023-04-23T21:00:00:Z","depth":"2","parameterNumber":3,"parameterNumberName":"V-component_of_CURRENTS"},"data":[0,0,0,0,0,0,0,0,0,0,0,0,0,0,0,0,0,0,0,0,0,0,0,0,0,0,0,0,0,0,0,0,0,0,0,0,0,0,0,0,0,0,0,0,0,0,0,0,0,0,0,0,0,0,0,0,0,0,-0.0228,-0.0227,0,-0.011,-0.0109,-0.0107,-0.0015,-0.0014,-0.0013,-0.0013,0.0169,0.0173,0.0177,0,0,0,0,0,0,0,0,0,0,0,0,0,-0.0301,-0.03,-0.0228,-0.0227,-0.0225,-0.0111,-0.0109,-0.0107,-0.0015,-0.0014,-0.0013,-0.0012,0.0167,0.0172,0.0177,0,0,0,0,0,0,0,0,0,0,0,0,0,-0.0233,-0.03,-0.0228,-0.0167,-0.016,-0.0111,-0.0109,-0.0107,-0.0015,-0.0014,-0.0013,-0.0012,0.0166,0.0172,0.0178,0.0194,0,0,0.0197,0.02,0,0,0,0,0,0,0,0,-0.0237,-0.023,-0.0177,-0.0171,-0.0164,-0.0078,-0.0068,-0.0003,-0.0015,-0.0068,-0.0012,-0.0011,0.009,0.0103,0.0124,0.0203,0.0211,0.0198,0.0201,0.0204,0.0206,0,0,0,0,0,0,0,-0.0242,-0.0234,-0.0179,-0.0176,-0.0168,-0.0121,-0.011,-0.0055,0.0006,-0.0063,-0.0057,-0.0047,0.0095,0.0118,0.0129,0.0213,0.0197,0.0203,0.0207,0.0209,0.0353,0.0353,0,0,0,0,0,0,-0.0265,-0.0239,-0.0183,-0.0176,-0.0201,-0.0121,-0.0109,-0.0105,0.0004,0.0021,-0.0048,-0.0044,0.0107,0.0122,0.0136,0.0167,0.0204,0.021,0.0213,0.0353,0.0353,0.0353,0,0,0,0,0,0,-0.0268,-0.0262,-0.0188,-0.0206,-0.0194,-0.0122,-0.0117,-0.0103,-0.008,0.0015,0.0033,-0.0039,0.0108,0.0127,0.0184,0.0174,0.0213,0.0218,0.0353,0.0353,0.0353,0.0225,0,0,0,0,0,0,-0.027,-0.0263,-0.0269,-0.0208,-0.0194,-0.0173,-0.0118,-0.0102,-0.0076,-0.0069,0.0029,0.0047,0.0111,0.0174,0.019,0.0184,0.0223,0.0353,0.0353,0.0353,0.0229,0.0221,0.0213,0,0,0,0,0,-0.0273,-0.0289,-0.027,-0.0263,-0.0204,-0.0174,-0.0163,-0.0105,-0.0077,-0.0078,-0.0006,0.0044,0.0187,0.0178,0.0197,0.0193,0.0353,0.0353,0.0353,0.0232,0.0222,0.0214,0,0,0,0,0,0,-0.0324,-0.0279,-0.0258,-0.0259,-0.0226,-0.0159,-0.0154,-0.0117,-0.0061,-0.0051,0.0041,0.0063,0.0108,0.017,0.0159,0.0238,0.028,0.0283,0.0181,0.0173,0.0165,0.0161,0.0228,0,0,0,0,0,-0.0341,-0.0338,-0.0291,-0.0292,-0.0282,-0.0222,-0.0202,-0.0167,-0.011,-0.0085,-0.0018,0.0059,0.0123,0.0162,0.0223,0.0263,0.0319,0.0277,0.0269,0.0261,0.0273,0.0331,0.0328,0.0354,0.0354,0.0354,0,0,-0.0358,-0.0336,-0.0333,-0.0303,-0.0272,-0.0262,-0.0207,-0.019,-0.0172,-0.0074,-0.0035,0.0027,0.0126,0.017,0.0197,0.0223,0.0281,0.0262,0.0254,0.0271,0.0331,0.0328,0.0326,0.0354,0.0354,0.0354,0,0,-0.0399,-0.0379,-0.0391,-0.0371,-0.0339,-0.0301,-0.0303,-0.0248,-0.0216,-0.0176,-0.0099,-0.0042,0.0051,0.0121,0.017,0.0159,0.023,0.0177,0.0142,0.0196,0.0194,0.0193,0.0241,0.0246,0.018,0.018,0.018,0,-0.0423,-0.0428,-0.0391,-0.0399,-0.0384,-0.0326,-0.0332,-0.0295,-0.0227,-0.0197,-0.0179,-0.0038,0.0032,0.0109,0.0107,0.014,0.0181,0.0161,0.0183,0.0183,0.0185,0.0235,0.0241,0.0174,0.0175,0.0175,0.0176,0,-0.0468,-0.047,-0.0479,-0.0464,-0.0447,-0.0447,-0.0395,-0.0375,-0.0332,-0.0279,-0.0213,-0.0123,-0.003,-0.0008,0.005,0.0098,0.0125,0.0153,0.0197,0.0174,0.0229,0.0238,0.0165,0.0167,0.0169,0.0171,0,0,-0.0517,-0.0512,-0.0513,-0.0517,-0.0481,-0.0473,-0.0453,-0.0407,-0.0383,-0.0322,-0.0277,-0.0179,-0.0127,-0.0066,0.0004,0.0056,0.0087,0.0102,0.0108,0.0133,0.0201,0.0241,0.0256,0.011,0.0111,0.0112,0.0228,0,-0.0559,-0.0596,-0.0569,-0.0587,-0.06,-0.0542,-0.0524,-0.0474,-0.0419,-0.0366,-0.0269,-0.0204,-0.0149,-0.0112,-0.0054,0.0059,0.0109,0.0053,0.0238,0.0244,0.0267,0.0267,0.0235,0.0339,0.0238,0.0239,0.0241,0,-0.0603,-0.0622,-0.0658,-0.0648,-0.0646,-0.0641,-0.0597,-0.0574,-0.0481,-0.0436,-0.0356,-0.0274,-0.0174,-0.0138,0.0033,-0.0007,0.0088,0.0167,0.0174,0.0269,0.0301,0.0353,0.036,0.0257,0.0255,0.0254,0.0253,0,-0.0658,-0.0674,-0.0707,-0.0706,-0.0689,-0.0685,-0.0666,-0.0595,-0.0572,-0.048,-0.0448,-0.0318,-0.025,-0.0121,0.005,0.004,0.0234,0.0244,0.037,0.0373,0.0417,0.0422,0.0357,0.0357,0.0357,0.0356,0.0356,0,-0.0708,-0.073,-0.0739,-0.0759,-0.0786,-0.0747,-0.0747,-0.0706,-0.0642,-0.0608,-0.0492,-0.0433,-0.0245,-0.0106,0.0038,0.024,0.0229,0.0374,0.0411,0.037,0.037,0.0362,0.0361,0.0361,0.036,0.0359,0.0358,0,-0.076,-0.0767,-0.0806,-0.0812,-0.0816,-0.0836,-0.0818,-0.0812,-0.0745,-0.07,-0.0675,-0.0511,-0.0321,-0.0124,0.0107,0.0227,0.0411,0.0482,0.0421,0.0449,0.0512,0.0504,0.0629,0.0632,0.0634,0.0636,0.0637,0,-0.079,-0.082,-0.0859,-0.089,-0.0896,-0.0917,-0.0927,-0.0875,-0.086,-0.074,-0.0719,-0.053,-0.037,-0.0018,0.0231,0.0495,0.0486,0.0601,0.0583,0.0519,0.0543,0.0531,0.052,0.0583,0.0584,0.0585,0.0585,0,-0.0843,-0.0856,-0.0894,-0.0964,-0.0996,-0.1025,-0.103,-0.1027,-0.095,-0.0883,-0.0748,-0.061,-0.0265,0.0039,0.0374,0.0514,0.0555,0.0625,0.0591,0.0516,0.0485,0.0505,0.0494,0.0592,0.0591,0.0591,0.0591,0.059,-0.0874,-0.0917,-0.0968,-0.1031,-0.1077,-0.1111,-0.1116,-0.1084,-0.1035,-0.0895,-0.0771,-0.0531,-0.0253,0.0243,0.0471,0.067,0.0666,0.0704,0.0698,0.0692,0.0663,0.0637,0.0767,0.0767,0.0768,0.0768,0.0768,0,-0.0908,-0.0959,-0.1028,-0.1098,-0.1153,-0.116,-0.1165,-0.1127,-0.1045,-0.0879,-0.0707,-0.039,-0.0045,0.0235,0.0572,0.0767,0.0733,0.0777,0.0697,0.069,0.0683,0.065,0.0754,0.0754,0.0755,0.0755,0,0,-0.0927,-0.1,-0.1041,-0.1142,-0.1188,-0.122,-0.1211,-0.1124,-0.0993,-0.0802,-0.0614,-0.0361,-0.0021,0.0211,0.0454,0.0622,0.0599,0.0624,0.0616,0.0486,0.0477,0.0624,0.0563,0,0,0,0,0]}],[{"header":{"parameterUnit":"m.s-1","parameterCategory":2,"la1":30.2991,"la2":30.254,"lo1":-89.0895,"lo2":-89.0444,"dy":0.0017,"dx":0.0017,"nx":28,"ny":28,"refTime":"2023-04-23T21:00:00:Z","depth":"4","parameterNumber":2,"parameterNumberName":"U-component_of_CURRENTS"},"data":[0,0,0,0,0,0,0,0,0,0,0,0,0,0,0,0,0,0,0,0,0,0,0,0,0,0,0,0,0,0,0,0,0,0,0,0,0,0,0,0,0,0,0,0,0,0,0,0,0,0,0,0,0,0,0,0,0,0,-0.2035,-0.2036,0,-0.2075,-0.2075,-0.2075,-0.2064,-0.2064,-0.2064,-0.2063,-0.2007,-0.2006,-0.2005,0,0,0,0,0,0,0,0,0,0,0,0,0,-0.1859,-0.1863,-0.2035,-0.2036,-0.2037,-0.2075,-0.2075,-0.2075,-0.2064,-0.2064,-0.2064,-0.2063,-0.2007,-0.2006,-0.2005,0,0,0,0,0,0,0,0,0,0,0,0,0,-0.1917,-0.1864,-0.2035,-0.204,-0.2041,-0.2075,-0.2075,-0.2075,-0.2065,-0.2064,-0.2063,-0.2063,-0.2008,-0.2006,-0.2004,-0.2005,0,0,-0.1999,-0.1998,0,0,0,0,0,0,0,0,-0.1914,-0.1923,-0.2038,-0.2039,-0.2041,-0.2068,-0.1992,-0.2048,-0.2065,-0.2051,-0.2063,-0.2063,-0.2022,-0.2019,-0.2022,-0.2002,-0.2,-0.1999,-0.1998,-0.1997,-0.1997,0,0,0,0,0,0,0,-0.191,-0.192,-0.2046,-0.2039,-0.2041,-0.2009,-0.2017,-0.2003,-0.2033,-0.2052,-0.2052,-0.2064,-0.2021,-0.2024,-0.2021,-0.1999,-0.1999,-0.1997,-0.1996,-0.1996,-0.2052,-0.2055,0,0,0,0,0,0,-0.192,-0.1918,-0.2045,-0.2048,-0.198,-0.2013,-0.2022,-0.2056,-0.2036,-0.2034,-0.2065,-0.2064,-0.2027,-0.2023,-0.2019,-0.207,-0.1997,-0.1995,-0.1994,-0.205,-0.2053,-0.2055,0,0,0,0,0,0,-0.1917,-0.1932,-0.2043,-0.1985,-0.1998,-0.2018,-0.2056,-0.2057,-0.2092,-0.2048,-0.2043,-0.2102,-0.2027,-0.2021,-0.2038,-0.2065,-0.1995,-0.1993,-0.2047,-0.2051,-0.2054,-0.2138,0,0,0,0,0,0,-0.1912,-0.1931,-0.197,-0.1987,-0.2002,-0.2079,-0.2057,-0.2059,-0.21,-0.21,-0.2077,-0.207,-0.2026,-0.2041,-0.2036,-0.2062,-0.1992,-0.2043,-0.2048,-0.2053,-0.2132,-0.2144,-0.2155,0,0,0,0,0,-0.1906,-0.1942,-0.1972,-0.1988,-0.2052,-0.2081,-0.2085,-0.2092,-0.2103,-0.2121,-0.2117,-0.2072,-0.2068,-0.2042,-0.2036,-0.2061,-0.2041,-0.2047,-0.2052,-0.2127,-0.2142,-0.2154,0,0,0,0,0,0,-0.1887,-0.1946,-0.1978,-0.2036,-0.2071,-0.2081,-0.2098,-0.2121,-0.2135,-0.2139,-0.2101,-0.2093,-0.2121,-0.2091,-0.2064,-0.2096,-0.2049,-0.2054,-0.2108,-0.2122,-0.2133,-0.2087,-0.199,0,0,0,0,0,-0.1908,-0.1948,-0.2002,-0.2049,-0.207,-0.21,-0.212,-0.2135,-0.2147,-0.2154,-0.215,-0.2143,-0.2137,-0.213,-0.2122,-0.2136,-0.2091,-0.2153,-0.2164,-0.2174,-0.2137,-0.2112,-0.2116,-0.2074,-0.2074,-0.2074,0,0,-0.1914,-0.1951,-0.1977,-0.2047,-0.2071,-0.2096,-0.2109,-0.2149,-0.2169,-0.2144,-0.2177,-0.2187,-0.2155,-0.2172,-0.2181,-0.2148,-0.2174,-0.2181,-0.2189,-0.2145,-0.2118,-0.2122,-0.2125,-0.2078,-0.2077,-0.2077,0,0,-0.1909,-0.1983,-0.2003,-0.2038,-0.2093,-0.2114,-0.2141,-0.2188,-0.2211,-0.2255,-0.2243,-0.2266,-0.2273,-0.2244,-0.2229,-0.2299,-0.2243,-0.2325,-0.2328,-0.2307,-0.2309,-0.2309,-0.2295,-0.2294,-0.2319,-0.2319,-0.232,0,-0.1913,-0.1959,-0.2013,-0.2034,-0.2063,-0.2128,-0.2151,-0.2182,-0.2234,-0.2251,-0.2273,-0.2301,-0.2289,-0.2276,-0.2307,-0.2317,-0.2304,-0.2276,-0.2317,-0.2317,-0.2316,-0.2301,-0.2298,-0.2324,-0.2324,-0.2323,-0.2323,0,-0.1906,-0.1959,-0.1971,-0.2026,-0.2064,-0.21,-0.2155,-0.2207,-0.2262,-0.2287,-0.2333,-0.2339,-0.234,-0.2368,-0.2352,-0.2356,-0.2352,-0.2342,-0.2272,-0.2324,-0.2307,-0.2302,-0.2331,-0.2329,-0.2328,-0.2327,0,0,-0.1867,-0.1952,-0.1959,-0.1995,-0.2071,-0.2101,-0.2147,-0.22,-0.2235,-0.2297,-0.2325,-0.2346,-0.2371,-0.2355,-0.2366,-0.2352,-0.2366,-0.2352,-0.2349,-0.2318,-0.2332,-0.2191,-0.2173,-0.2373,-0.2372,-0.2371,-0.2335,0,-0.1847,-0.1888,-0.1937,-0.1989,-0.202,-0.2097,-0.2135,-0.2193,-0.2252,-0.2301,-0.2318,-0.2351,-0.2359,-0.2386,-0.2374,-0.2373,-0.2352,-0.2376,-0.23,-0.2297,-0.2148,-0.2161,-0.2368,-0.2331,-0.233,-0.2329,-0.2329,0,-0.181,-0.1853,-0.1898,-0.199,-0.2013,-0.2054,-0.2142,-0.2186,-0.2249,-0.2296,-0.2323,-0.235,-0.2351,-0.2362,-0.2333,-0.2357,-0.2337,-0.2329,-0.2328,-0.2143,-0.2144,-0.226,-0.2319,-0.232,-0.2321,-0.2321,-0.2322,0,-0.174,-0.1823,-0.1866,-0.1896,-0.2003,-0.2045,-0.2106,-0.2182,-0.2224,-0.229,-0.2328,-0.2336,-0.2357,-0.2328,-0.2316,-0.2334,-0.2277,-0.2296,-0.214,-0.2132,-0.2233,-0.2231,-0.2242,-0.2242,-0.2242,-0.2242,-0.2242,0,-0.1684,-0.1723,-0.1847,-0.1871,-0.1934,-0.202,-0.2084,-0.2147,-0.2225,-0.2253,-0.2318,-0.2325,-0.2352,-0.2332,-0.2307,-0.2195,-0.2261,-0.2111,-0.2095,-0.2279,-0.2283,-0.2231,-0.2231,-0.2241,-0.2241,-0.2241,-0.2242,0,-0.1588,-0.1671,-0.173,-0.1857,-0.1902,-0.1946,-0.207,-0.2106,-0.2199,-0.2237,-0.2258,-0.2319,-0.2281,-0.2278,-0.2238,-0.2166,-0.2088,-0.203,-0.2226,-0.2227,-0.1966,-0.1971,-0.1846,-0.184,-0.1835,-0.1831,-0.1828,0,-0.1536,-0.1559,-0.1703,-0.1743,-0.1806,-0.1893,-0.1946,-0.2071,-0.2105,-0.2205,-0.2201,-0.2214,-0.2226,-0.2039,-0.2067,-0.1976,-0.1953,-0.1914,-0.1924,-0.1919,-0.1918,-0.193,-0.1941,-0.182,-0.1819,-0.1818,-0.1816,0,-0.1436,-0.1503,-0.1557,-0.1644,-0.1717,-0.1784,-0.1871,-0.1885,-0.2008,-0.2113,-0.2063,-0.2022,-0.1975,-0.1923,-0.186,-0.1805,-0.194,-0.1863,-0.1873,-0.1883,-0.1887,-0.1893,-0.191,-0.18,-0.1802,-0.1804,-0.1805,0,-0.1361,-0.1375,-0.146,-0.152,-0.161,-0.1643,-0.171,-0.1741,-0.179,-0.1908,-0.1881,-0.1892,-0.1947,-0.1832,-0.1778,-0.1702,-0.168,-0.1634,-0.1656,-0.1675,-0.1633,-0.1614,-0.1397,0,0,0,0,0,-0.1273,-0.1279,-0.1328,-0.1391,-0.1473,-0.1521,-0.1644,-0.1714,-0.1838,-0.1747,-0.1807,-0.1746,-0.1658,-0.1673,-0.1552,-0.1708,-0.1696,-0.1565,-0.1659,-0.1707,-0.1726,-0.1692,0,0,0,0,0,0,-0.1214,-0.1254,-0.128,-0.127,-0.128,-0.1354,-0.1423,-0.1513,-0.1475,-0.1595,-0.1544,-0.1629,-0.156,-0.167,-0.1504,-0.1508,-0.1532,-0.1584,-0.158,-0.1696,-0.1713,-0.1729,-0.17,0,0,0,0,0]},{"header":{"parameterUnit":"m.s-1","parameterCategory":2,"la1":30.2991,"la2":30.254,"lo1":-89.0895,"lo2":-89.0444,"dy":0.0017,"dx":0.0017,"nx":28,"ny":28,"refTime":"2023-04-23T21:00:00:Z","depth":"4","parameterNumber":3,"parameterNumberName":"V-component_of_CURRENTS"},"data":[0,0,0,0,0,0,0,0,0,0,0,0,0,0,0,0,0,0,0,0,0,0,0,0,0,0,0,0,0,0,0,0,0,0,0,0,0,0,0,0,0,0,0,0,0,0,0,0,0,0,0,0,0,0,0,0,0,0,-0.0146,-0.0145,0,-0.0072,-0.0071,-0.0071,-0.0007,-0.0007,-0.0006,-0.0006,0.0079,0.0081,0.0083,0,0,0,0,0,0,0,0,0,0,0,0,0,-0.0181,-0.0181,-0.0146,-0.0145,-0.0144,-0.0073,-0.0071,-0.007,-0.0008,-0.0007,-0.0006,-0.0005,0.0079,0.0081,0.0083,0,0,0,0,0,0,0,0,0,0,0,0,0,-0.0141,-0.018,-0.0146,-0.0105,-0.0101,-0.0073,-0.0071,-0.007,-0.0008,-0.0007,-0.0006,-0.0005,0.0078,0.008,0.0083,0.0081,0,0,0.0091,0.0092,0,0,0,0,0,0,0,0,-0.0144,-0.014,-0.0112,-0.0108,-0.0103,-0.0049,-0.0053,-0.0019,-0.0008,-0.0042,-0.0006,-0.0005,0.0036,0.0042,0.0055,0.0085,0.0088,0.0091,0.0093,0.0094,0.0094,0,0,0,0,0,0,0,-0.0147,-0.0142,-0.0115,-0.0111,-0.0106,-0.0073,-0.0067,-0.0046,-0.0008,-0.0039,-0.0034,-0.0028,0.0039,0.0053,0.0058,0.009,0.0091,0.0093,0.0095,0.0096,0.0149,0.0149,0,0,0,0,0,0,-0.0162,-0.0146,-0.0118,-0.0113,-0.0123,-0.0073,-0.0066,-0.0066,-0.0008,0.0001,-0.0029,-0.0026,0.0048,0.0055,0.0061,0.0075,0.0094,0.0096,0.0097,0.0149,0.0149,0.0149,0,0,0,0,0,0,-0.0163,-0.016,-0.0121,-0.0128,-0.0121,-0.0074,-0.0074,-0.0065,-0.0051,-0.0001,0.0009,-0.0024,0.0049,0.0057,0.0081,0.0078,0.0097,0.0099,0.0149,0.0149,0.0149,0.0093,0,0,0,0,0,0,-0.0164,-0.0161,-0.017,-0.013,-0.0121,-0.0116,-0.0075,-0.0065,-0.0049,-0.0044,0.0006,0.0015,0.005,0.0076,0.0083,0.0082,0.0101,0.0149,0.0149,0.0149,0.0095,0.0091,0.0088,0,0,0,0,0,-0.0166,-0.0183,-0.0171,-0.0167,-0.0133,-0.0117,-0.011,-0.0072,-0.005,-0.0053,-0.0012,0.0014,0.008,0.0078,0.0086,0.0085,0.0149,0.0149,0.0149,0.0097,0.0092,0.0088,0,0,0,0,0,0,-0.0205,-0.0177,-0.0163,-0.0171,-0.0151,-0.0107,-0.0107,-0.008,-0.005,-0.0044,0.0009,0.002,0.0038,0.0068,0.0064,0.0101,0.012,0.0121,0.0078,0.0074,0.007,0.0071,0.0104,0,0,0,0,0,-0.0219,-0.0222,-0.0191,-0.0199,-0.0193,-0.0152,-0.0141,-0.0117,-0.0084,-0.0069,-0.0033,0.0008,0.0042,0.0062,0.0088,0.0106,0.015,0.0113,0.0109,0.0105,0.0112,0.0179,0.0182,0.0148,0.0148,0.0148,0,0,-0.0235,-0.0221,-0.0223,-0.0207,-0.0188,-0.0186,-0.0143,-0.0136,-0.0126,-0.0066,-0.0049,-0.0012,0.0041,0.0063,0.0075,0.009,0.0135,0.0105,0.0102,0.0111,0.0179,0.0183,0.0186,0.0148,0.0148,0.0148,0,0,-0.0271,-0.0261,-0.0276,-0.0264,-0.0245,-0.0219,-0.0221,-0.0185,-0.0163,-0.0145,-0.0094,-0.0053,-0.0015,0.0036,0.0066,0.0058,0.0106,0.0059,0.0049,0.0113,0.0117,0.0121,0.0166,0.0174,0.0065,0.0065,0.0065,0,-0.0293,-0.0304,-0.0278,-0.0289,-0.0281,-0.0239,-0.0249,-0.0224,-0.0183,-0.0156,-0.015,-0.006,-0.0022,0.0038,0.0038,0.005,0.0087,0.006,0.0109,0.0114,0.0119,0.0164,0.0174,0.0062,0.0062,0.0063,0.0063,0,-0.0335,-0.0344,-0.0354,-0.0349,-0.034,-0.0345,-0.0308,-0.0293,-0.0262,-0.022,-0.0168,-0.011,-0.0046,-0.0032,0.0001,0.0057,0.0069,0.0089,0.0119,0.0119,0.0166,0.0178,0.0058,0.0059,0.006,0.0061,0,0,-0.0374,-0.0382,-0.0384,-0.0391,-0.0371,-0.0367,-0.0355,-0.0317,-0.0291,-0.0248,-0.02,-0.0138,-0.009,-0.0053,-0.0003,0.0055,0.0113,0.0082,0.0086,0.0124,0.0243,0.0198,0.0207,0.014,0.0142,0.0144,0.0257,0,-0.0411,-0.0451,-0.0434,-0.0456,-0.047,-0.0427,-0.0413,-0.0371,-0.0323,-0.027,-0.0186,-0.0134,-0.0102,-0.0071,-0.0007,0.0085,0.0143,0.008,0.0241,0.0245,0.0205,0.0219,0.015,0.0265,0.0268,0.027,0.0272,0,-0.0448,-0.047,-0.0509,-0.0503,-0.0502,-0.0506,-0.0464,-0.0445,-0.0355,-0.0313,-0.0235,-0.0166,-0.007,-0.005,0.011,0.0066,0.0149,0.0217,0.0224,0.0213,0.0222,0.0272,0.0293,0.0291,0.029,0.0288,0.0287,0,-0.0485,-0.051,-0.0544,-0.0547,-0.054,-0.0539,-0.0527,-0.0459,-0.0432,-0.0337,-0.03,-0.0175,-0.0114,0.0007,0.0138,0.0131,0.0311,0.0324,0.0364,0.0362,0.0393,0.0388,0.0442,0.0442,0.0442,0.0441,0.0441,0,-0.052,-0.0544,-0.057,-0.059,-0.0615,-0.0588,-0.0584,-0.0546,-0.0478,-0.0438,-0.0329,-0.0271,-0.0097,0.0024,0.0142,0.0279,0.0318,0.0368,0.0393,0.0364,0.0355,0.0401,0.0394,0.0446,0.0445,0.0444,0.0443,0,-0.0548,-0.0568,-0.0609,-0.0629,-0.0638,-0.0657,-0.0645,-0.063,-0.0565,-0.051,-0.0483,-0.0329,-0.0177,-0.0009,0.0198,0.0272,0.0416,0.0457,0.0402,0.0421,0.0425,0.0414,0.0519,0.0519,0.0518,0.0518,0.0517,0,-0.0565,-0.0594,-0.065,-0.0684,-0.0699,-0.0723,-0.0732,-0.0684,-0.0658,-0.0548,-0.0516,-0.0363,-0.025,0.0014,0.0178,0.04,0.0424,0.049,0.0468,0.0421,0.0436,0.0426,0.0416,0.0517,0.0517,0.0517,0.0516,0,-0.0592,-0.0619,-0.0656,-0.0732,-0.0769,-0.0795,-0.08,-0.0783,-0.0711,-0.0662,-0.0526,-0.0377,-0.0203,0.0003,0.0171,0.0328,0.0442,0.0486,0.0488,0.0469,0.042,0.0432,0.0423,0.0515,0.0515,0.0515,0.0515,0,-0.0607,-0.0645,-0.0704,-0.0763,-0.0821,-0.0843,-0.0839,-0.0792,-0.0753,-0.062,-0.0583,-0.0382,-0.0258,-0.0034,0.0121,0.0267,0.0303,0.0339,0.035,0.0353,0.0261,0.0172,0.0219,0,0,0,0,0,-0.0614,-0.0661,-0.0725,-0.079,-0.0849,-0.0873,-0.0869,-0.0847,-0.0781,-0.0693,-0.0629,-0.0464,-0.0214,-0.0096,0.0045,0.0098,0.0311,0.0263,0.0354,0.0507,0.0508,0.0423,0,0,0,0,0,0,-0.062,-0.0686,-0.0725,-0.08,-0.0845,-0.0892,-0.0889,-0.0845,-0.0774,-0.0693,-0.055,-0.0461,-0.0211,-0.0299,0.0037,0.0082,0.0152,0.0389,0.0391,0.0506,0.0507,0.0509,0.0421,0,0,0,0,0]}]]